Martha's Vineyard, MA

3:24 AM EDT on October 20, 2017 (GMT -0400)
Martha's Vineyard

Weather History for KMVY - August, 2014

Change the Weather History Date:

Wednesday, August 13, 2014

  Actual Average Record
Temperature  
Mean Temperature 68 °F -  
Max Temperature 72 °F 77 °F 88 °F (2016)
Min Temperature 66 °F 61 °F 42 °F (2006)
Cooling Degree Days 4    
Growing Degree Days 18 (Base 50)    
Moisture  
Dew Point 66 °F    
Average Humidity 93    
Maximum Humidity 100    
Minimum Humidity 84    
Precipitation  
Precipitation 0.19 in - - ()
Sea Level Pressure  
Sea Level Pressure 29.75 in    
Wind  
Wind Speed 15 mph (SE)    
Max Wind Speed 23 mph    
Max Gust Speed 34 mph    
Visibility 7 miles    
Events Rain    
Averages and records for this station are not official NWS values.
T = Trace of Precipitation, MM = Missing Value Source: NWS Daily Summary

Daily Weather History Graph

Daily Weather History Graph

Search for Another Location

Airport or City:

Trip Planner

Search our weather history database for the weather conditions in past years. The results will help you decide how hot, cold, wet, or windy it might be!

Date:

Astronomy

Aug. 13, 2014 Rise Set
Actual Time 5:49 AM EDT 7:44 PM EDT
Civil Twilight 5:19 AM EDT 8:14 PM EDT
Nautical Twilight 4:42 AM EDT 8:50 PM EDT
Astronomical Twilight 4:03 AM EDT 9:29 PM EDT
Moon 9:24 PM EDT (8/13) 9:16 AM EDT (8/13)
Length of Visible Light 14h 54m
Length of Day
13h 55m
Waning Gibbous, 88% of the Moon is Illuminated
Aug 13
Waning Gibbous
Aug 17
Last Quarter
Aug 25
New
Sep 2
First Quarter
Sep 8
Full

Hourly Weather History & Observations

Time (EDT) Temp. Dew Point Humidity Pressure Visibility Wind Dir Wind Speed Gust Speed Precip Events Conditions
12:53 AM 69.1 °F 64.0 °F 84% 30.01 in 10.0 mi SE 11.5 mph - N/A   Overcast
1:53 AM 69.1 °F 64.0 °F 84% 29.99 in 10.0 mi ESE 13.8 mph - 0.00 in Rain Light Rain
2:53 AM 68.0 °F 64.9 °F 90% 29.96 in 10.0 mi ESE 13.8 mph - 0.01 in   Overcast
3:53 AM 68.0 °F 64.9 °F 90% 29.95 in 10.0 mi SE 15.0 mph 24.2 mph 0.00 in Rain Light Rain
4:53 AM 66.9 °F 64.9 °F 93% 29.93 in 4.0 mi ESE 11.5 mph - 0.09 in Rain Light Rain
5:53 AM 68.0 °F 64.9 °F 90% 29.90 in 10.0 mi ESE 18.4 mph 29.9 mph 0.01 in Rain Light Rain
6:53 AM 68.0 °F 64.9 °F 90% 29.89 in 10.0 mi ESE 17.3 mph - 0.01 in Rain Light Rain
9:53 AM 69.1 °F 64.0 °F 84% 29.85 in 10.0 mi SE 17.3 mph - N/A   Overcast
10:15 AM 68.0 °F 64.9 °F 90% 29.85 in 10.0 mi ESE 20.7 mph 31.1 mph 0.00 in   Overcast
11:16 AM 70.0 °F 66.0 °F 87% 29.80 in 10.0 mi ESE 23.0 mph 34.5 mph N/A   Overcast
11:37 AM 70.0 °F 66.9 °F 90% 29.80 in 10.0 mi ESE 20.7 mph 33.4 mph N/A   Overcast
11:53 AM 70.0 °F 66.0 °F 87% 29.79 in 10.0 mi ESE 21.9 mph 31.1 mph N/A   Overcast
12:14 PM 69.1 °F 66.0 °F 90% 29.79 in 10.0 mi ESE 19.6 mph 31.1 mph N/A   Overcast
12:31 PM 69.1 °F 66.0 °F 90% 29.79 in 10.0 mi ESE 20.7 mph 31.1 mph N/A   Overcast
12:53 PM 71.1 °F 66.9 °F 87% 29.76 in 7.0 mi ESE 20.7 mph 31.1 mph 0.00 in   Overcast
1:00 PM 70.0 °F 66.0 °F 87% 29.76 in 10.0 mi ESE 19.6 mph 32.2 mph N/A   Overcast
1:07 PM 70.0 °F 66.0 °F 87% 29.75 in 10.0 mi ESE 18.4 mph 29.9 mph N/A   Overcast
1:45 PM 69.1 °F 66.0 °F 90% 29.73 in 8.0 mi ESE 19.6 mph 28.8 mph 0.00 in Rain Light Rain
1:53 PM 69.1 °F 66.0 °F 90% 29.73 in 10.0 mi ESE 18.4 mph 28.8 mph 0.00 in Rain Light Rain
2:13 PM 68.0 °F 66.9 °F 96% 29.72 in 7.0 mi ESE 17.3 mph 27.6 mph 0.00 in Rain Light Rain
2:20 PM 68.0 °F 66.0 °F 93% 29.72 in 6.0 mi SE 18.4 mph 29.9 mph 0.00 in Rain Light Rain
2:35 PM 66.9 °F 66.0 °F 97% 29.71 in 2.5 mi SE 17.3 mph 29.9 mph 0.02 in Rain Light Rain
2:43 PM 66.9 °F 66.0 °F 97% 29.71 in 4.0 mi ESE 19.6 mph 26.5 mph 0.03 in Rain Light Rain
2:53 PM 66.9 °F 66.0 °F 97% 29.70 in 7.0 mi SE 19.6 mph 27.6 mph 0.03 in Rain Light Rain
3:06 PM 66.9 °F 66.9 °F 100% 29.71 in 5.0 mi SE 13.8 mph 26.5 mph 0.00 in Rain Light Rain
3:53 PM 66.9 °F 66.0 °F 97% 29.68 in 4.0 mi SSE 12.7 mph 26.5 mph 0.03 in Rain Light Rain
4:53 PM 71.1 °F 69.1 °F 93% 29.66 in 9.0 mi SSE 21.9 mph 31.1 mph 0.01 in Rain Light Rain
5:53 PM 69.1 °F 68.0 °F 96% 29.64 in 6.0 mi SE 11.5 mph - 0.00 in   Overcast
6:25 PM 69.1 °F 68.0 °F 96% 29.64 in 6.0 mi SSE 13.8 mph 25.3 mph N/A   Overcast
6:34 PM 69.1 °F 68.0 °F 96% 29.64 in 6.0 mi SSE 10.4 mph - N/A   Overcast
6:53 PM 70.0 °F 69.1 °F 97% 29.64 in 4.0 mi SSE 10.4 mph - 0.00 in Rain Light Rain
7:07 PM 70.0 °F 69.1 °F 97% 29.64 in 1.0 mi SSE 11.5 mph - 0.00 in Rain Light Rain
7:15 PM 69.1 °F 69.1 °F 100% 29.64 in 1.0 mi South 10.4 mph - 0.00 in   Overcast
7:53 PM 69.1 °F 68.0 °F 96% 29.64 in 2.0 mi SSW 5.8 mph - 0.00 in   Overcast
8:00 PM 69.1 °F 68.0 °F 96% 29.64 in 4.0 mi SSW 8.1 mph - N/A   Overcast
8:04 PM 69.1 °F 68.0 °F 96% 29.64 in 2.0 mi SSW 9.2 mph - N/A   Overcast
8:53 PM 68.0 °F 68.0 °F 100% 29.65 in 6.0 mi SW 6.9 mph - N/A   Overcast
9:53 PM 69.1 °F 68.0 °F 96% 29.65 in 10.0 mi West 8.1 mph - N/A   Mostly Cloudy
10:01 PM 69.1 °F 66.9 °F 93% 29.65 in 10.0 mi West 6.9 mph - N/A   Scattered Clouds
10:53 PM 66.9 °F 64.9 °F 93% 29.66 in 10.0 mi West 10.4 mph - N/A   Clear